Погода в Багате

Узбекистан     41°21′12″N   60°48′43″E
темп.,
°C
ветер,
м/с
пор.,
м/с
влажн.,
%
обл.,
%
осадки,
мм/ч
давл.,
гПа
погр.,
м
28 сентября, вт
вт2823:00+19юз22360 0.0 101614
02:00+17юз22380 0.0 101611
05:00+16юз22400 0.0 101511
08:00+18юз22385 0.0 101665
11:00+22юз22293 0.0 10161075
14:00+25з22241 0.0 10141603
17:00+25сз332360 0.0 10131755
20:00+22ссз333110 0.0 101436
29 сентября, ср
ср2923:00+20ссв333998 0.0 101540
02:00+17св58430 0.0 1016172
05:00+16св46460 0.0 1016125
08:00+16всв34440 0.0 1018134
11:00+21св22300 0.0 1018750
14:00+24сз23260 0.0 10171879
17:00+25ссз33240 0.0 10172163
20:00+22ссв46310 0.0 1018121
30 сентября, чт
чт3023:00+18св59390 0.0 1019248
02:00+16св59450 0.0 1019232
05:00+14св59490 0.0 1019213
08:00+15св58490 0.0 1020240
11:00+21всв66330 0.0 1020702
14:00+24всв44260 0.0 10181346
17:00+25св65260 0.0 10171680
20:00+20св913363 0.0 1019478
1 октября, пт
пт123:00+15св914440 0.0 1020454
02:00+14св914450 0.0 1020418
05:00+12св813450 0.0 1020412
08:00+12св71043100 0.0 1022356
11:00+16св893860 0.1 1022587
14:00+18ссв7733100 0.1 1022867
17:00+18ссв8829100 0.1 10221120
20:00+13ссв91041100 0.0 1024448
2 октября, сб
сб223:00+12ссв695481 0.0 1025389
02:00+13ссв694073 0.0 1025523
05:00+13ссв693389 0.0 1025580
08:00+13ссв7832100 0.0 1027506
11:00+15св772861 0.0 1027839
14:00+18ссв662317 0.0 10261463
17:00+18ссв762042 0.0 10261588
20:00+15ссв610215 0.0 1027327